Location: Newark
(13.4819°N, 12.8431°E)
Time: 17:10:09
(UTC+00:00)

OTV 5 (USA 277) - Visible Passes

Search period start: 22 October 2019 00:00
Search period end: 01 November 2019 00:00
Orbit: 310 x 324 km, 54.5° (Epoch: 17 October)

Date Brightness Start Highest point End Pass type
(mag) Time Alt. Az. Time Alt. Az. Time Alt. Az.
23 Oct ? 04:20:24 10° N 04:22:46 27° NE 04:25:08 10° ESE visible
23 Oct ? 17:20:50 10° S 17:22:58 21° ESE 17:24:09 16° E visible
24 Oct ? 04:34:38 10° NW 04:37:16 49° WSW 04:39:53 10° SSE visible
24 Oct ? 17:34:45 10° SW 17:37:25 64° NW 17:39:17 17° NNE visible
25 Oct ? 03:18:06 13° ENE 03:18:06 13° ENE 03:19:03 10° E visible
25 Oct ? 17:50:29 10° W 17:51:58 14° NW 17:53:28 10° NNW visible
26 Oct ? 03:33:18 28° SE 03:33:18 28° SE 03:34:48 10° SE visible
27 Oct ? 03:48:28 12° S 03:48:28 12° S 03:48:45 10° S visible
